DECAYED

STARLINK-1161, 45068 (Decayed)

Orbit data source: Space-Track

STARLINK-1161, 45068 was a payload satellite owned by SpaceX/Seattle (US) in LEO that was launched on Wed, 29 Jan 2020 UTC via an FALCON 9 launch vehicle from the Air Force Eastern Test Range (AFETR). Payload-class satellites include a variety of spacecraft equipped with specific instruments for various scientific and technological missions. These include communications satellites like Starlink; space stations such as the ISS; scientific satellites like the Hubble; Earth observation satellites from companies like Planet Labs, Umbra, and HawkEye 360; GPS; miniature CubeSats for education and research; and military/defense satellites.

Not visible in the next 10 days
Identifier
45068, 2020-006AA
Orbit
Decayed
Country
Flag of USUS
Related business
Manufacturer
SpaceX/Seattle
Mission
Decayed Commercial Communications
Bus & Motor
STARLINK, Unknown motor
Mass
260 kg wet, ~248 kg dry
Launch date (UTC)
2020-01-29 (6 years ago)
Launch vehicle
FALCON 9
Launch site
Air Force Eastern Test Range (AFETR)
Object type
Payload
Rocket body
Debris
Shape & HBR
Box + 1 Pan, 10.1 m
Radar Cross Section
13.562 m², Large (>1 m²)

Expand to show TLE details & history
Last TLE update: 5 months ago

TLE from 5 months ago
0 STARLINK-1161
1 45068U 20006AA  25198.03493064  .41673612  12787-4  27218-3 0  9997
2 45068  52.9814 152.6941 0004014 319.3403  89.3690 16.53426896302835
Epoch: 2025-07-17T00:50Z
TLE epoch observation values (Epoch: 2025-07-17T00:50:18.007Z)
Latitude
37.02113°
Longitude
-120.55912°
Altitude
133.24 km
Speed
7.831 km/s
True Right ascension
12h 28m 29s
True Declination
36° 50' 24"
Sunlit
Object was in daylight at epoch
Visualization orbit readout
Latitude
Unknown
Longitude
Unknown
Altitude
Unknown
Speed
Unknown
Apparent Right ascension
Unknown
Apparent Declination
Unknown
Sunlit
N/A
Visualization observer readout
Local Sidereal Time
10:19:01
Azimuth
Unknown
Elevation
Unknown
Doppler factor
Unknown
Orbital elements
Apogee altitude
133.24 km
Perigee altitude
128.014 km
Semi-major axis
6,508.764 km
Eccentricity
0.0004
Inclination
52.9814°
RAAN
152.6941°
Arg. of periapsis
319.3403°
True anomaly
89.41499°
Mean anomaly
89.369°
Eccentric anomaly
89.392°
Mean motion
4.13329 °/min
Orbital period
87.1 mins
BSTAR
0.00027218
Loading maneuver chart data...
Computing Atmospheric mass density...
Loading historical data...
Loading historical data...
Loading historical data...
Loading historical data...
Loading historical data...
Loading historical data...
Loading historical data...

Documentation

Showing up to 5 results
|